When you browse on this site, cookies collect data to enhance your experience and personalize the content and advertising you see.
Visit our Privacy Policy to learn more. By continuing to use the site, you agree to this use of cookies and data.
  • în România
  • Lista ţărilor
  • Pe 7 zile
  • Temperatura apei
  • Hartă satelitară
  • Meteo pe hartă
  • Widget-uri
  • user-avatar
    Intrare

    Meteo pe oră la Klimontow

    Astăzi, 18 Februarie, Luni

    Timp Temperatura Precipitaţii Vânt Presiune Umiditate
    00:00 +5°C° 0 mm 1 m/s 749 mmHg 75%
    01:00 +5°C° 0 mm 1 m/s 749 mmHg 77%
    02:00 +5°C° 0 mm 1 m/s 749 mmHg 77%
    03:00 +4°C° 0 mm 1 m/s 749 mmHg 77%
    04:00 +4°C° 0 mm 1 m/s 748 mmHg 77%
    05:00 +4°C° 0 mm 1 m/s 748 mmHg 75%
    06:00 +4°C° 0 mm 1 m/s 748 mmHg 74%
    07:00 +3°C° 0 mm 1 m/s 748 mmHg 73%
    08:00 +5°C° 0 mm 1 m/s 748 mmHg 66%
    09:00 +6°C° 0 mm 1 m/s 748 mmHg 59%
    10:00 +8°C° 0 mm 1 m/s 748 mmHg 53%
    11:00 +9°C° 0 mm 1 m/s 748 mmHg 49%
    12:00 +10°C° 0 mm 1 m/s 748 mmHg 45%
    13:00 +12°C° 0 mm 1 m/s 748 mmHg 41%
    14:00 +11°C° 0 mm 1 m/s 747 mmHg 43%
    15:00 +11°C° 0 mm 1 m/s 747 mmHg 45%
    16:00 +11°C° 0 mm 1 m/s 747 mmHg 46%
    17:00 +10°C° 0 mm 1 m/s 747 mmHg 50%
    18:00 +9°C° 0 mm 1 m/s 747 mmHg 54%
    19:00 +8°C° 0 mm 1 m/s 747 mmHg 58%
    20:00 +7°C° 0 mm 1 m/s 746 mmHg 62%
    21:00 +7°C° 0 mm 1 m/s 746 mmHg 66%
    22:00 +6°C° 0 mm 1 m/s 746 mmHg 70%
    23:00 +6°C° 0 mm 1 m/s 746 mmHg 71%

    Mâine, 19 Februarie, Marţi

    Timp Temperatura Precipitaţii Vânt Presiune Umiditate
    00:00 +5°C° 0 mm 1 m/s 746 mmHg 72%
    01:00 +5°C° 0 mm 1 m/s 746 mmHg 74%
    02:00 +5°C° 0 mm 1 m/s 746 mmHg 72%
    03:00 +4°C° 0 mm 1 m/s 745 mmHg 71%
    04:00 +4°C° 0 mm 1 m/s 745 mmHg 69%
    05:00 +4°C° 0 mm 1 m/s 745 mmHg 68%
    06:00 +3°C° 0 mm 1 m/s 745 mmHg 66%
    07:00 +3°C° 0 mm 1 m/s 745 mmHg 65%
    08:00 +5°C° 0 mm 1 m/s 745 mmHg 59%
    09:00 +7°C° 0 mm 1 m/s 744 mmHg 54%
    10:00 +7°C° 0 mm 2 m/s 744 mmHg 48%
    11:00 +9°C° 0 mm 2 m/s 744 mmHg 46%
    12:00 +10°C° 0 mm 3 m/s 744 mmHg 44%
    13:00 +11°C° 0 mm 3 m/s 743 mmHg 42%
    14:00 +11°C° 0 mm 3 m/s 743 mmHg 45%
    15:00 +11°C° 0 mm 3 m/s 743 mmHg 48%
    16:00 +11°C° 0 mm 3 m/s 742 mmHg 51%
    17:00 +8°C° 0 mm 4 m/s 743 mmHg 58%
    18:00 +7°C° 0 mm 4 m/s 743 mmHg 64%
    19:00 +6°C° 0 mm 4 m/s 743 mmHg 71%
    20:00 +5°C° 0 mm 4 m/s 743 mmHg 72%
    21:00 +5°C° 0 mm 4 m/s 743 mmHg 74%
    22:00 +4°C° 0 mm 4 m/s 743 mmHg 76%
    23:00 +4°C° 0.1 mm 4 m/s 743 mmHg 77%

    Poimâine, 20 Februarie, Miercuri

    Timp Temperatura Precipitaţii Vânt Presiune Umiditate
    00:00 +3°C° 0.1 mm 5 m/s 743 mmHg 78%
    01:00 +3°C° 0.1 mm 5 m/s 744 mmHg 78%
    02:00 +3°C° 0.4 mm 5 m/s 744 mmHg 82%
    03:00 +3°C° 0.4 mm 5 m/s 744 mmHg 86%
    04:00 +4°C° 0.4 mm 4 m/s 744 mmHg 89%
    05:00 +4°C° 0 mm 4 m/s 744 mmHg 90%
    06:00 +3°C° 0 mm 4 m/s 744 mmHg 90%
    07:00 +2°C° 0 mm 5 m/s 745 mmHg 91%
    08:00 +3°C° 0 mm 5 m/s 745 mmHg 83%
    09:00 +5°C° 0 mm 5 m/s 745 mmHg 75%
    10:00 +5°C° 0 mm 6 m/s 746 mmHg 67%
    11:00 +5°C° 0 mm 6 m/s 746 mmHg 65%
    12:00 +7°C° 0 mm 6 m/s 746 mmHg 63%
    13:00 +6°C° 0 mm 7 m/s 746 mmHg 61%
    14:00 +7°C° 0 mm 6 m/s 746 mmHg 61%
    15:00 +7°C° 0 mm 6 m/s 746 mmHg 61%
    16:00 +7°C° 0 mm 5 m/s 746 mmHg 61%
    17:00 +6°C° 0 mm 5 m/s 746 mmHg 63%
    18:00 +6°C° 0 mm 4 m/s 747 mmHg 66%
    19:00 +5°C° 0 mm 3 m/s 747 mmHg 68%
    20:00 +5°C° 0 mm 4 m/s 747 mmHg 70%
    21:00 +5°C° 0 mm 4 m/s 748 mmHg 72%
    22:00 +5°C° 0 mm 4 m/s 748 mmHg 74%
    23:00 +4°C° 0 mm 4 m/s 748 mmHg 76%

    21 Februarie, Joi

    Timp Temperatura Precipitaţii Vânt Presiune Umiditate
    00:00 +4°C° 0 mm 4 m/s 748 mmHg 78%
    01:00 +4°C° 0 mm 4 m/s 748 mmHg 80%
    02:00 +3°C° 0 mm 4 m/s 748 mmHg 80%
    03:00 +3°C° 0 mm 4 m/s 748 mmHg 81%
    04:00 +3°C° 0 mm 4 m/s 748 mmHg 82%
    05:00 +3°C° 0 mm 4 m/s 748 mmHg 82%
    06:00 +1°C° 0 mm 4 m/s 748 mmHg 82%
    07:00 +1°C° 0 mm 4 m/s 748 mmHg 82%
    08:00 +3°C° 0.2 mm 4 m/s 748 mmHg 78%
    09:00 +3°C° 0.2 mm 5 m/s 748 mmHg 75%
    10:00 +5°C° 0.2 mm 5 m/s 748 mmHg 71%
    11:00 +5°C° 0.3 mm 5 m/s 748 mmHg 70%
    12:00 +6°C° 0.3 mm 5 m/s 748 mmHg 69%
    13:00 +6°C° 0.3 mm 5 m/s 748 mmHg 69%
    14:00 +6°C° 0.2 mm 5 m/s 748 mmHg 71%
    15:00 +6°C° 0.2 mm 5 m/s 748 mmHg 74%
    16:00 +6°C° 0.2 mm 4 m/s 748 mmHg 77%
    17:00 +5°C° 0.1 mm 4 m/s 748 mmHg 79%
    18:00 +5°C° 0.1 mm 4 m/s 748 mmHg 81%
    19:00 +5°C° 0.1 mm 4 m/s 748 mmHg 83%
    20:00 +5°C° 0.3 mm 4 m/s 749 mmHg 85%
    21:00 +5°C° 0.3 mm 4 m/s 749 mmHg 87%
    22:00 +5°C° 0.3 mm 3 m/s 749 mmHg 89%
    23:00 +5°C° 0.2 mm 3 m/s 749 mmHg 89%

    22 Februarie, Vineri

    Timp Temperatura Precipitaţii Vânt Presiune Umiditate
    00:00 +5°C° 0.2 mm 3 m/s 750 mmHg 90%
    01:00 +5°C° 0.2 mm 3 m/s 750 mmHg 91%
    02:00 +4°C° 0 mm 3 m/s 750 mmHg 92%
    03:00 +4°C° 0 mm 3 m/s 750 mmHg 93%
    04:00 +4°C° 0 mm 3 m/s 751 mmHg 94%
    05:00 +4°C° 0 mm 3 m/s 751 mmHg 94%
    06:00 +4°C° 0 mm 3 m/s 752 mmHg 94%
    07:00 +4°C° 0 mm 3 m/s 752 mmHg 94%
    08:00 +5°C° 0.1 mm 3 m/s 753 mmHg 91%
    09:00 +5°C° 0.1 mm 4 m/s 754 mmHg 88%
    10:00 +6°C° 0.1 mm 4 m/s 754 mmHg 85%
    11:00 +6°C° 0 mm 4 m/s 754 mmHg 82%
    12:00 +5°C° 0 mm 4 m/s 755 mmHg 79%
    13:00 +5°C° 0 mm 4 m/s 755 mmHg 76%
    14:00 +5°C° 0 mm 4 m/s 756 mmHg 69%
    15:00 +5°C° 0 mm 4 m/s 756 mmHg 62%
    16:00 +5°C° 0 mm 4 m/s 756 mmHg 55%
    17:00 +4°C° 0 mm 3 m/s 757 mmHg 54%
    18:00 +3°C° 0 mm 3 m/s 757 mmHg 54%
    19:00 +1°C° 0 mm 3 m/s 758 mmHg 54%
    20:00 +2°C° 0 mm 2 m/s 758 mmHg 56%
    21:00 +1°C° 0 mm 2 m/s 759 mmHg 58%
    22:00 -1°C° 0 mm 2 m/s 759 mmHg 60%
    23:00 +1°C° 0 mm 1 m/s 760 mmHg 61%

    23 Februarie, Sâmbătă

    Timp Temperatura Precipitaţii Vânt Presiune Umiditate
    00:00 +1°C° 0 mm 1 m/s 760 mmHg 61%
    01:00 +1°C° 0 mm 1 m/s 760 mmHg 61%
    02:00 0°C° 0 mm 1 m/s 760 mmHg 60%
    03:00 0°C° 0 mm 1 m/s 760 mmHg 59%
    04:00 0°C° 0 mm 1 m/s 760 mmHg 58%
    05:00 0°C° 0 mm 1 m/s 761 mmHg 58%
    06:00 -1°C° 0 mm 0 m/s 761 mmHg 57%
    07:00 -1°C° 0 mm 0 m/s 761 mmHg 56%
    08:00 0°C° 0 mm 0 m/s 761 mmHg 50%
    09:00 +1°C° 0 mm 0 m/s 761 mmHg 44%
    10:00 +3°C° 0 mm 0 m/s 761 mmHg 38%
    11:00 +3°C° 0 mm 0 m/s 761 mmHg 36%
    12:00 +4°C° 0 mm 0 m/s 760 mmHg 34%
    13:00 +5°C° 0 mm 0 m/s 760 mmHg 32%
    14:00 +6°C° 0 mm 1 m/s 760 mmHg 34%
    15:00 +7°C° 0 mm 1 m/s 759 mmHg 36%
    16:00 +7°C° 0 mm 1 m/s 759 mmHg 38%
    17:00 +5°C° 0 mm 2 m/s 759 mmHg 42%
    18:00 +5°C° 0 mm 2 m/s 759 mmHg 45%
    19:00 +4°C° 0 mm 2 m/s 759 mmHg 49%
    20:00 +4°C° 0 mm 2 m/s 758 mmHg 53%
    21:00 +2°C° 0 mm 3 m/s 758 mmHg 58%
    22:00 +2°C° 0 mm 3 m/s 758 mmHg 62%
    23:00 +2°C° 0 mm 3 m/s 758 mmHg 66%
    Arată mai mult